Location: Observatoire
(46.1952°N, 5.3391°E)
Time: 20:38:57
(UTC+01:00)

Altair - Pass Details

Date: 24 February 2026
Orbit: 1502 x 1682 km, 47.2° (Epoch: 10 March)

Event Time Altitude Azimuth Distance (km) Brightness Sun altitude
Rises 07:37:59 0° 282° (WNW) 4,653 9.3 1.0°
Reaches altitude 10° 07:40:58 10° 282° (WNW) 3,683 8.9 1.5°
Maximum altitude 07:50:18 87° 196° (SSW) 1,559 7.7 3.1°
Drops below altitude 10° 07:59:59 10° 108° (ESE) 3,807 12.7 4.7°
Sets 08:03:07 0° 108° (ESE) 4,816 13.2 5.2°
